Regional Weather Roundup
Issued by NWS

Home | Current Version | Previous Version | Graphics & Text | Print | Product List | Glossary On
Versions: 1 2 3 4 5 6 7 8 9 10 11 12 13 14 15 16 17 18 19 20 21 22 23 24 25 26 27 28 29 30 31 32 33 34 35 36 37 38 39 40 41 42 43 44 45 46 47 48 49 50
000
ASUS43 KLSX 292307
RWRMO

WEATHER SUMMARY FOR MISSOURI
NATIONAL WEATHER SERVICE SPRINGFIELD MO
600 PM CDT FRI JUL 29 2016

NOTE: "FAIR" INDICATES FEW OR NO CLOUDS BELOW 12,000 FEET WITH NO
       SIGNIFICANT WEATHER AND/OR OBSTRUCTIONS TO VISIBILITY.
       CURRENT SKY AND/OR WEATHER CONDITIONS ARE NOT AVAILABLE FOR
       CHILLICOTHE AND FARMINGTON.

MOZ001>031-035>038-043-044-053-054-300000-
...NORTHERN AND WESTERN MISSOURI...

CITY           SKY/WX    TMP DP  RH WIND       PRES   REMARKS
KANSAS CTY INT MOSUNNY   83  62  49 N7        29.98S
KANSAS C DTWN  MOSUNNY   84  62  47 NE10      29.96S
LEE`S SUMMIT   SUNNY     84  64  50 N12       29.98S
ST JOSEPH      MOSUNNY   82  63  52 N9        29.98F
CHILLICOTHE      N/A     84  61  45 NW6       29.97F
KIRKSVILLE     SUNNY     81  60  48 NW12      29.97F

$$
MOZ066>068-077>081-088>096-101>105-300000-
...SOUTHWEST MISSOURI...

CITY           SKY/WX    TMP DP  RH WIND       PRES   REMARKS
SPRINGFIELD    SUNNY     84  67  56 N14       29.96S
JOPLIN         MOSUNNY   86  67  52 NW8       29.96S
BRANSON        PTSUNNY   77  72  83 S5        29.99F

$$
MOZ032>034-039>042-045>050-055>058-069>072-300000-
...CENTRAL MISSOURI...

CITY           SKY/WX    TMP DP  RH WIND       PRES   REMARKS
COLUMBIA       MOSUNNY   83  66  56 NW9       29.96R
JEFFERSON CITY SUNNY     84  68  58 NW8       29.93S
ROLLA          MOSUNNY   80  71  74 W6        29.95S
SEDALIA        SUNNY     84  68  58 N9        29.97S
WHITEMAN AFB   MOSUNNY   84  67  56 N12       29.95F
OSAGE BEACH    RAIN      80  72  76 CALM      29.96S

$$
MOZ051-052-059>065-300000-
...EAST CENTRAL MISSOURI...

CITY           SKY/WX    TMP DP  RH WIND       PRES   REMARKS
ST LOUIS INTL  PTSUNNY   85  69  58 N10       29.92S
SPIRIT OF STL  MOSUNNY   85  70  60 NW9       29.90S
ST CHARLES     MOSUNNY   84  70  62 NW10      29.90S

$$
MOZ072>076-082>087-097>100-106>115-300000-
...SOUTH CENTRAL AND SOUTHEAST MISSOURI...

CITY           SKY/WX    TMP DP  RH WIND       PRES   REMARKS
CAPE GIRARDEAU CLOUDY    82  74  76 S5        29.91S
FARMINGTON     CLOUDY    78  75  90 W3        29.95
POPLAR BLUFF   HVY RAIN  74  70  87 NW9       29.97R FOG
WEST PLAINS    CLOUDY    74  68  81 NE6       30.00S

$$



USA.gov is the U.S. government's official web portal to all federal, state and local government web resources and services.